User: anonymous   Login
Location: Stamford Observatory
(41.1241°N, 73.5498°W)
Time: 03:02:50
(UTC-05:00)
Language:

IRS-P3 - Orbit

View from above orbital plane
View from above orbital plane
View from above satellite
View from above satellite

Ground track
Ground track

The orbit data is extracted from the following two-line orbital elements,

1 23827U 96017A   15063.63861559  .00000226  00000-0  12099-3 0  9997
2 23827 098.6503 002.4458 0002490 308.2753 051.8200 14.22324550983623
Epoch (UTC): 04 March 2015 15:19:36
Eccentricity: 0.0002490
inclination: 98.6503°
perigee height: 816 km
apogee height: 819 km
right ascension of ascending node: 2.4458°
argument of perigee: 308.2753°
revolutions per day: 14.22324550
mean anomaly at epoch: 51.8200°
orbit number at epoch: 98362

The dashed part of the orbit path shows where the satellite is in the earth's shadow,  

DLR